Regional Weather Roundup
Issued by NWS Bismarck, ND

Home | Current Version | Previous Version | Text Only | Print | Product List | Glossary On
Versions: 1 2 3 4 5 6 7 8 9 10 11 12 13 14 15 16 17 18 19 20 21 22 23 24 25 26 27 28 29 30 31 32 33 34 35 36 37 38 39 40 41 42 43 44 45 46 47 48 49 50
000
ASUS43 KBIS 010310
RWRBIS

NWR BROADCAST TEXT
NATIONAL WEATHER SERVICE BISMARCK ND
900 PM CST SAT JAN 31 2015

NOTE: "FAIR" INDICATES FEW OR NO CLOUDS BELOW 12,000 FEET WITH NO
SIGNIFICANT WEATHER AND/OR OBSTRUCTIONS TO VISIBILITY.


CITY           SKY/WX    TMP DP  RH WIND       PRES   REMARKS
WILLISTON      FLURRIES   0  -8  69 NE10      30.45R WCI -16
MINOT          CLOUDY    -6 -14  68 N14       30.46S WCI -26
MINOT AFB      PTCLDY    -7 -14  73 NE14      30.48R WCI -28
BISMARCK       LGT SNOW   0  -5  79 NE18      30.39R WCI -21
DICKINSON      LGT SNOW   1  -4  79 NE15      30.26R VSB 1   WCI -18
GARRISON         N/A     -2 -12  62 NE9       30.41R WCI -18
HETTINGER ARPT LGT SNOW   5   1  83 NE14G24   30.23R FOG     WCI -12
JAMESTOWN      CLOUDY    -2 -11  65 N20       30.38R WCI -24
BEACH          LGT SNOW   3   0  85 NE12G17   30.29R WCI -13
CARRINGTON     CLOUDY    -4 -11  71 MISG      30.42S
CROSBY         FAIR      -4 -13  65 E7        30.48S WCI -18
HARVEY         FAIR      -6 -17  59 NE16      30.46R WCI -28
HAZEN          LGT SNOW   0  -9  65 NE10      30.42R WCI -17
LINTON         LGT SNOW   3   0  85 NE20G26   30.31R WCI -18
MANDAN         LGT SNOW   0  -4  85 NE15      30.36R WCI -20
OAKES            N/A      1  -4  78 N28G33    30.31R WCI -23
RUGBY          FAIR      -8 -17  65 NE15      30.48R WCI -29
TIOGA          FAIR      -6 -11  77 NE10      30.44S WCI -23
WATFORD CITY   LGT SNOW   0  -6  78 NE12      30.40R WCI -18
$$

CITY           SKY/WX    TMP DP  RH WIND       PRES   REMARKS
GRAND FORKS    PTCLDY    -6 -15  65 N16       30.51S WCI -28
GRAND FORKS AF CLEAR     -8 -17  65 N17G23    30.51S WCI -31
DEVILS LAKE    MOCLDY    -8 -18  59 NE15      30.45S WCI -29
FARGO          CLOUDY     1  -9  62 N22       30.40S WCI -21
CANDO          CLOUDY    -9 -18  64 NE17G24   30.48F WCI -33
CAVALIER       FAIR      -9 -17  70 N15       30.57R WCI -31
GWINNER        CLOUDY     5  -6  61 N24       30.33S WCI -17
ROLLA          FAIR     -11 -18  70 N15       30.46F WCI -34
WALHALLA         N/A     -9 -18  64 N15       30.58S WCI -31
$$

CITY           SKY/WX    TMP DP  RH WIND       PRES   REMARKS
ABERDEEN       CLOUDY     7  -4  60 NE22G33   30.26S WCI -14
MOBRIDGE       CLOUDY    11  -2  56 N18G28    30.23R WCI  -7
BUFFALO          N/A     11   7  84 NE18      30.10R WCI  -7
RAPID CITY     LGT SNOW  17  15  92 NE15      30.08R VSB 3/4 WCI   2
GLASGOW        LGT SNOW   6   0  76 NE8       30.42R WCI  -7
SIDNEY         PTCLDY     3  -2  78 N12G18    30.44R WCI -13
WOLF POINT     LGT SNOW   6  -2  69 NE14      30.45R WCI -11
GLENDIVE       PTCLDY     3   0  85 NE15      30.33R WCI -15
MILES CITY     FLURRIES  10   6  84 N14       30.29R WCI  -6
BAKER          LGT SNOW   6   2  83 NE14      30.23R FOG     WCI -11
$$

CITY           SKY/WX    TMP DP  RH WIND       PRES   REMARKS
GREAT FALLS    CLOUDY     9   5  84 CALM      30.33R
REGINA         PTCLDY    -6 -13  71 NE3       30.51F
ESTEVAN        CLOUDY    -6 -17  59 E7        30.48S WCI -20
$$




USA.gov is the U.S. government's official web portal to all federal, state and local government web resources and services.